Home   Weather   Florø   Past weeks

Flag for Norway Past Weather in Florø, Norway — Yesterday and Last 2 Weeks

Now
66 °F

Passing clouds.


Feels Like: 66 °F
Forecast: 58 / 64 °F
Wind: 17 mph from Northwest

Location: Floro

Current Time: Jul 23, 2017 at 8:55:51 pm

Latest Report: Jul 23, 2017 at 8:20 pm


Visibility: N/A

Pressure: 29.89 "Hg

Humidity: 73%

Dew Point: 57 °F

Location of FlorøLocation

Past Weather in Florø — Graph

°F

Florø Temperature Yesterday

Maximum temperature yesterday: 70 °F (at 2:20 pm)
Minimum temperature yesterday: 57 °F (at 6:20 am)
Average temperature yesterday: 63 °F

High & Low Weather Summary for the Past Weeks

 TemperatureHumidityPressure
High70 °F (Jul 20, 11:20 am)94% (Jul 9, 9:50 am)30.15 "Hg (Jul 9, 9:50 am)
Low46 °F (Jul 11, 3:50 am)43% (Jul 20, 4:20 pm)29.68 "Hg (Jul 9, 9:50 am)
Average57 °F77%29.88 "Hg
* Reported Jul 8 7:20 pm — Jul 23 7:20 pm, Florø. Weather by CustomWeather, © 2017

Note: Actual official high and low records may vary slightly from our data, if they occured in-between our weather recording intervals... More about our weather records

Advertising

Florø Weather History for the Previous 24 Hours

Scroll right to see more
 ConditionsComfort  
Time TempWeatherWind HumidityBarometerVisibility
7:20 pm
Sun, Jul 23
66 °FPassing clouds.13 mph73%29.92 "HgN/A
6:50 pm66 °FPassing clouds.14 mph73%29.92 "HgN/A
6:20 pm66 °FPassing clouds.13 mph73%29.92 "HgN/A
5:20 pm68 °FMild.12 mph69%29.95 "HgN/A
4:50 pm68 °FMild.13 mph73%29.95 "HgN/A
4:20 pm66 °FMild.12 mph73%29.95 "HgN/A
3:50 pm68 °FMild.12 mph69%29.95 "HgN/A
3:20 pm68 °FMild.15 mph69%29.95 "HgN/A
2:50 pm68 °FMild.13 mph73%29.98 "HgN/A
2:20 pm68 °FPassing clouds.14 mph69%29.98 "HgN/A
1:50 pm68 °FPassing clouds.13 mph69%29.98 "HgN/A
1:20 pm66 °FPassing clouds.13 mph73%29.98 "HgN/A
12:50 pm68 °FPassing clouds.12 mph69%29.98 "HgN/A
12:20 pm66 °FPassing clouds.12 mph73%30.01 "HgN/A
11:50 am68 °FPassing clouds.12 mph69%30.01 "HgN/A
11:20 am68 °FPassing clouds.12 mph69%30.01 "HgN/A
10:50 am68 °FMild.10 mph69%30.01 "HgN/A
10:20 am66 °FMild.8 mph68%30.01 "HgN/A
9:50 am66 °FMild.5 mph73%30.01 "HgN/A
9:20 am63 °FMild.3 mph77%30.01 "HgN/A
8:20 am63 °FMild.5 mph88%30.01 "HgN/A
7:20 am61 °FCool.2 mph94%30.04 "HgN/A
6:50 am59 °FCool.3 mph94%30.04 "HgN/A
6:20 am59 °FCool.3 mph94%30.04 "HgN/A
5:50 am57 °FCool.3 mph94%30.04 "HgN/A
5:20 am57 °FCool.5 mph94%30.04 "HgN/A
4:20 am57 °FCool.3 mph94%30.04 "HgN/A
3:50 am57 °FCool.No wind94%30.07 "Hg6 mi
3:20 am57 °FCool.1 mph94%30.07 "HgN/A
2:50 am57 °FCool.1 mph94%30.07 "HgN/A
2:20 am59 °FCool.2 mph94%30.07 "HgN/A
1:50 am59 °FCool.1 mph94%30.07 "HgN/A
1:20 am61 °FPassing clouds.5 mph88%30.07 "HgN/A
12:50 am61 °FOvercast.5 mph88%30.07 "HgN/A
12:20 am61 °FPassing clouds.6 mph88%30.07 "HgN/A
11:50 pm
Sat, Jul 22
61 °FCool.7 mph88%30.07 "HgN/A
11:20 pm61 °FPassing clouds.3 mph88%30.07 "HgN/A
10:50 pm61 °FPassing clouds.1 mph83%30.07 "HgN/A
10:20 pm61 °FCool.2 mph83%30.07 "HgN/A
9:50 pm63 °FMild.3 mph83%30.07 "HgN/A
9:20 pm63 °FScattered clouds.6 mph77%30.07 "HgN/A
8:50 pm66 °FScattered clouds.3 mph73%30.07 "HgN/A
8:20 pm64 °FPassing clouds.3 mph73%30.07 "HgN/A
Weather by CustomWeather, © 2017

See weather overviewHow to use our weather pages